Location: Chacón
(10.5789°N, 66.9317°W)
Time: 20:24:34
(UTC+00:00)

Cosmos 2333 - Pass Details

Date: 23 May 2024
Orbit: 828 x 866 km, 70.9° (Epoch: 22 June)

Event Time Altitude Azimuth Distance (km) Brightness Sun altitude
Rises 08:42:54 0° 333° (NNW) 3,427 7.4 -19.2°
Reaches altitude 10° 08:45:26 10° 328° (NNW) 2,494 6.6 -18.7°
Maximum altitude 08:50:54 47° 256° (WSW) 1,134 4.4 -17.5°
Drops below altitude 10° 08:56:24 10° 183° (S) 2,500 6.4 -16.3°
Sets 08:58:57 0° 177° (S) 3,436 7.1 -15.7°
